iso_date,epoch_date,Year,Hour,Min,DOY,POS_DOY,Lat,Lon,BP,Ts,Ta,has_bp,has_ts,has_ta,BuoyID,Buoy_Type,Buoy_Owner,Logistics,Hemisphere
2011-06-08T00:00:00Z,1307491200,2011,0,0,159.0,159.0,74.19901,-148.9009,1033.35,-999.00,-1.09,yes,no,yes,300025010206580,unknown,unknown,unknown,North
2011-06-08T01:00:28Z,1307494829,2011,1,0,159.042,159.042,74.23452,-149.12669,1033.21,-999.00,-1.2,yes,no,yes,300025010206580,unknown,unknown,unknown,North
2011-06-08T01:59:31Z,1307498371,2011,2,0,159.083,159.083,74.23452,-149.12669,1032.92,-999.00,-1.44,yes,no,yes,300025010206580,unknown,unknown,unknown,North
2011-06-08T03:00:00Z,1307502000,2011,3,0,159.125,159.125,74.24635,-148.94573,1032.76,-999.00,-1.86,yes,no,yes,300025010206580,unknown,unknown,unknown,North
2011-06-08T04:00:28Z,1307505629,2011,4,0,159.167,159.167,74.14643,-145.7279,1032.51,-999.00,-2.16,yes,no,yes,300025010206580,unknown,unknown,unknown,North
2011-06-08T04:59:31Z,1307509171,2011,5,0,159.208,159.208,74.21679,-149.01366,1032.16,-999.00,-2.25,yes,no,yes,300025010206580,unknown,unknown,unknown,North
2011-06-08T06:00:00Z,1307512800,2011,6,0,159.25,159.25,74.26412,-149.0589,1032.17,-999.00,-2.66,yes,no,yes,300025010206580,unknown,unknown,unknown,North
2011-06-08T07:00:28Z,1307516429,2011,7,0,159.292,159.292,74.24635,-148.94573,1032.14,-999.00,-3.87,yes,no,yes,300025010206580,unknown,unknown,unknown,North
2011-06-08T07:59:31Z,1307519971,2011,8,0,159.333,159.333,74.26412,-149.0589,1032.09,-999.00,-3.9,yes,no,yes,300025010206580,unknown,unknown,unknown,North
2011-06-08T09:00:00Z,1307523600,2011,9,0,159.375,159.375,74.80032,-156.06528,1032.14,-999.00,-4.62,yes,no,yes,300025010206580,unknown,unknown,unknown,North
2011-06-08T10:00:28Z,1307527229,2011,10,0,159.417,159.417,74.24635,-148.94573,1032.09,-999.00,-4.6,yes,no,yes,300025010206580,unknown,unknown,unknown,North
2011-06-08T10:59:31Z,1307530771,2011,11,0,159.458,159.458,74.23452,-149.12669,1032.05,-999.00,-4.18,yes,no,yes,300025010206580,unknown,unknown,unknown,North
2011-06-08T12:00:00Z,1307534400,2011,12,0,159.5,159.5,74.21679,-149.01366,1031.98,-999.00,-4.16,yes,no,yes,300025010206580,unknown,unknown,unknown,North
2011-06-08T13:00:28Z,1307538029,2011,13,0,159.542,159.542,74.24635,-148.94573,1031.92,-999.00,-4.48,yes,no,yes,300025010206580,unknown,unknown,unknown,North
2011-06-08T13:59:31Z,1307541571,2011,14,0,159.583,159.583,74.23452,-149.12669,1031.51,-999.00,-4.39,yes,no,yes,300025010206580,unknown,unknown,unknown,North
2011-06-08T15:00:00Z,1307545200,2011,15,0,159.625,159.625,74.25219,-149.23998,1031.52,-999.00,-4.28,yes,no,yes,300025010206580,unknown,unknown,unknown,North
2011-06-08T16:00:28Z,1307548829,2011,16,0,159.667,159.667,74.23452,-149.12669,1031.34,-999.00,-3.55,yes,no,yes,300025010206580,unknown,unknown,unknown,North
2011-06-08T16:59:31Z,1307552371,2011,17,0,159.708,159.708,74.25219,-149.23998,1031.15,-999.00,-3.44,yes,no,yes,300025010206580,unknown,unknown,unknown,North
2011-06-08T18:00:00Z,1307556000,2011,18,0,159.75,159.75,75.16892,-138.8668,1031.09,-999.00,-2.63,yes,no,yes,300025010206580,unknown,unknown,unknown,North
2011-06-08T19:00:28Z,1307559629,2011,19,0,159.792,159.792,74.11033,-152.38162,1031.14,-999.00,-2.37,yes,no,yes,300025010206580,unknown,unknown,unknown,North
2011-06-08T19:59:31Z,1307563171,2011,20,0,159.833,159.833,74.23452,-149.12669,1031.13,-999.00,-2.16,yes,no,yes,300025010206580,unknown,unknown,unknown,North
2011-06-08T21:00:00Z,1307566800,2011,21,0,159.875,159.875,74.28183,-149.17234,1031.12,-999.00,-2.2,yes,no,yes,300025010206580,unknown,unknown,unknown,North
2011-06-08T22:00:28Z,1307570429,2011,22,0,159.917,159.917,74.23452,-149.12669,1031.36,-999.00,-2.32,yes,no,yes,300025010206580,unknown,unknown,unknown,North
2011-06-08T22:59:31Z,1307573971,2011,23,0,159.958,159.958,74.10921,-136.1124,1031.42,-999.00,-2.43,yes,no,yes,300025010206580,unknown,unknown,unknown,North
2011-06-09T00:00:00Z,1307577600,2011,0,0,160.0,160.0,74.22853,-148.83283,1031.09,-999.00,-2.79,yes,no,yes,300025010206580,unknown,unknown,unknown,North
2011-06-09T01:00:28Z,1307581229,2011,1,0,160.042,160.042,74.28183,-149.17234,1031.17,-999.00,-3.11,yes,no,yes,300025010206580,unknown,unknown,unknown,North
2011-06-09T01:59:31Z,1307584771,2011,2,0,160.083,160.083,74.22254,-149.30736,1031.14,-999.00,-3.31,yes,no,yes,300025010206580,unknown,unknown,unknown,North
2011-06-09T03:00:00Z,1307588400,2011,3,0,160.125,160.125,74.2698,-149.35354,1031.0,-999.00,-3.14,yes,no,yes,300025010206580,unknown,unknown,unknown,North
2011-06-09T04:00:28Z,1307592029,2011,4,0,160.167,160.167,74.22254,-149.30736,1030.81,-999.00,-3.14,yes,no,yes,300025010206580,unknown,unknown,unknown,North
2011-06-09T04:59:31Z,1307595571,2011,5,0,160.208,160.208,74.23452,-149.12669,1030.68,-999.00,-3.28,yes,no,yes,300025010206580,unknown,unknown,unknown,North
2011-06-09T06:00:00Z,1307599200,2011,6,0,160.25,160.25,74.22254,-149.30736,1030.79,-999.00,-3.59,yes,no,yes,300025010206580,unknown,unknown,unknown,North
2011-06-09T07:00:28Z,1307602829,2011,7,0,160.292,160.292,74.24011,-149.42077,1030.91,-999.00,-3.72,yes,no,yes,300025010206580,unknown,unknown,unknown,North
2011-06-09T07:59:31Z,1307606371,2011,8,0,160.333,160.333,74.24011,-149.42077,1030.82,-999.00,-3.8,yes,no,yes,300025010206580,unknown,unknown,unknown,North
2011-06-09T09:00:00Z,1307610000,2011,9,0,160.375,160.375,74.23452,-149.12669,1030.79,-999.00,-4.13,yes,no,yes,300025010206580,unknown,unknown,unknown,North
2011-06-09T10:00:28Z,1307613629,2011,10,0,160.417,160.417,74.25763,-149.53446,1030.75,-999.00,-4.06,yes,no,yes,300025010206580,unknown,unknown,unknown,North
2011-06-09T10:59:31Z,1307617171,2011,11,0,160.458,160.458,74.22254,-149.30736,1030.77,-999.00,-4.4,yes,no,yes,300025010206580,unknown,unknown,unknown,North
2011-06-09T12:00:00Z,1307620800,2011,12,0,160.5,160.5,74.24011,-149.42077,1030.53,-999.00,-4.59,yes,no,yes,300025010206580,unknown,unknown,unknown,North
2011-06-09T13:00:28Z,1307624429,2011,13,0,160.542,160.542,74.22254,-149.30736,1030.4,-999.00,-4.66,yes,no,yes,300025010206580,unknown,unknown,unknown,North
2011-06-09T13:59:31Z,1307627971,2011,14,0,160.583,160.583,74.25763,-149.53446,1030.17,-999.00,-4.44,yes,no,yes,300025010206580,unknown,unknown,unknown,North
2011-06-09T15:00:00Z,1307631600,2011,15,0,160.625,160.625,74.24011,-149.42077,1029.88,-999.00,-4.68,yes,no,yes,300025010206580,unknown,unknown,unknown,North
2011-06-09T16:00:28Z,1307635229,2011,16,0,160.667,160.667,74.25763,-149.53446,1029.73,-999.00,-4.22,yes,no,yes,300025010206580,unknown,unknown,unknown,North
2011-06-09T16:59:31Z,1307638771,2011,17,0,160.708,160.708,74.24011,-149.42077,1029.55,-999.00,-3.98,yes,no,yes,300025010206580,unknown,unknown,unknown,North
2011-06-09T18:00:00Z,1307642400,2011,18,0,160.75,160.75,74.25763,-149.53446,1029.49,-999.00,-3.72,yes,no,yes,300025010206580,unknown,unknown,unknown,North
2011-06-09T19:00:28Z,1307646029,2011,19,0,160.792,160.792,74.28736,-149.46737,1029.54,-999.00,-4.18,yes,no,yes,300025010206580,unknown,unknown,unknown,North
2011-06-09T19:59:31Z,1307649571,2011,20,0,160.833,160.833,74.30487,-149.58147,1029.06,-999.00,-3.85,yes,no,yes,300025010206580,unknown,unknown,unknown,North
2011-06-09T21:00:00Z,1307653200,2011,21,0,160.875,160.875,74.22789,-149.60127,1029.22,-999.00,-3.42,yes,no,yes,300025010206580,unknown,unknown,unknown,North
2011-06-09T22:00:28Z,1307656829,2011,22,0,160.917,160.917,74.2751,-149.6484,1028.87,-999.00,-3.27,yes,no,yes,300025010206580,unknown,unknown,unknown,North
2011-06-09T22:59:31Z,1307660371,2011,23,0,160.958,160.958,74.22789,-149.60127,1028.74,-999.00,-3.1,yes,no,yes,300025010206580,unknown,unknown,unknown,North
2011-06-10T00:00:00Z,1307664000,2011,0,0,161.0,161.0,74.3657,-150.99704,1028.38,-999.00,-2.42,yes,no,yes,300025010206580,unknown,unknown,unknown,North
2011-06-10T01:00:28Z,1307667629,2011,1,0,161.042,161.042,74.22789,-149.60127,1028.06,-999.00,-2.37,yes,no,yes,300025010206580,unknown,unknown,unknown,North
2011-06-10T01:59:31Z,1307671171,2011,2,0,161.083,161.083,74.24532,-149.71507,1027.83,-999.00,-2.44,yes,no,yes,300025010206580,unknown,unknown,unknown,North
2011-06-10T03:00:00Z,1307674800,2011,3,0,161.125,161.125,74.22789,-149.60127,1027.42,-999.00,-2.39,yes,no,yes,300025010206580,unknown,unknown,unknown,North
2011-06-10T04:00:28Z,1307678429,2011,4,0,161.167,161.167,74.12478,-147.50872,1027.44,-999.00,-2.84,yes,no,yes,300025010206580,unknown,unknown,unknown,North
2011-06-10T04:59:31Z,1307681971,2011,5,0,161.208,161.208,74.21041,-149.48774,1027.34,-999.00,-3.08,yes,no,yes,300025010206580,unknown,unknown,unknown,North
2011-06-10T06:00:00Z,1307685600,2011,6,0,161.25,161.25,74.24532,-149.71507,1026.88,-999.00,-2.84,yes,no,yes,300025010206580,unknown,unknown,unknown,North
2011-06-10T07:00:28Z,1307689229,2011,7,0,161.292,161.292,74.2751,-149.6484,1026.91,-999.00,-3.19,yes,no,yes,300025010206580,unknown,unknown,unknown,North
2011-06-10T07:59:31Z,1307692771,2011,8,0,161.333,161.333,74.22789,-149.60127,1026.92,-999.00,-4.31,yes,no,yes,300025010206580,unknown,unknown,unknown,North
2011-06-10T09:00:00Z,1307696400,2011,9,0,161.375,161.375,74.25763,-149.53446,1026.87,-999.00,-4.2,yes,no,yes,300025010206580,unknown,unknown,unknown,North
2011-06-10T10:00:28Z,1307700029,2011,10,0,161.417,161.417,74.19814,-149.66782,1026.58,-999.00,-3.82,yes,no,yes,300025010206580,unknown,unknown,unknown,North
2011-06-10T10:59:31Z,1307703571,2011,11,0,161.458,161.458,74.22789,-149.60127,1026.56,-999.00,-3.84,yes,no,yes,300025010206580,unknown,unknown,unknown,North
2011-06-10T12:00:00Z,1307707200,2011,12,0,161.5,161.5,74.21552,-149.78148,1026.42,-999.00,-4.12,yes,no,yes,300025010206580,unknown,unknown,unknown,North
2011-06-10T13:00:28Z,1307710829,2011,13,0,161.542,161.542,74.26268,-149.82914,1026.34,-999.00,-3.88,yes,no,yes,300025010206580,unknown,unknown,unknown,North
2011-06-10T13:59:31Z,1307714371,2011,14,0,161.583,161.583,74.21552,-149.78148,1026.24,-999.00,-4.4,yes,no,yes,300025010206580,unknown,unknown,unknown,North
2011-06-10T15:00:00Z,1307718000,2011,15,0,161.625,161.625,74.26268,-149.82914,1026.22,-999.00,-5.03,yes,no,yes,300025010206580,unknown,unknown,unknown,North
2011-06-10T16:00:28Z,1307721629,2011,16,0,161.667,161.667,74.21552,-149.78148,1026.1,-999.00,-4.6,yes,no,yes,300025010206580,unknown,unknown,unknown,North
2011-06-10T16:59:31Z,1307725171,2011,17,0,161.708,161.708,74.26268,-149.82914,1025.9,-999.00,-5.0,yes,no,yes,300025010206580,unknown,unknown,unknown,North
2011-06-10T18:00:00Z,1307728800,2011,18,0,161.75,161.75,74.92928,-141.44785,1025.84,-999.00,-4.51,yes,no,yes,300025010206580,unknown,unknown,unknown,North
2011-06-10T19:00:28Z,1307732429,2011,19,0,161.792,161.792,74.14371,-153.49359,1025.75,-999.00,-4.06,yes,no,yes,300025010206580,unknown,unknown,unknown,North
2011-06-10T19:59:31Z,1307735971,2011,20,0,161.833,161.833,74.24532,-149.71507,1025.54,-999.00,-4.48,yes,no,yes,300025010206580,unknown,unknown,unknown,North
2011-06-10T21:00:00Z,1307739600,2011,21,0,161.875,161.875,74.21552,-149.78148,1025.41,-999.00,-4.02,yes,no,yes,300025010206580,unknown,unknown,unknown,North
2011-06-10T22:00:28Z,1307743229,2011,22,0,161.917,161.917,74.21552,-149.78148,1025.42,-999.00,-3.91,yes,no,yes,300025010206580,unknown,unknown,unknown,North
2011-06-10T22:59:31Z,1307746771,2011,23,0,161.958,161.958,74.21552,-149.78148,1025.32,-999.00,-3.67,yes,no,yes,300025010206580,unknown,unknown,unknown,North
2011-06-11T00:00:00Z,1307750400,2011,0,0,162.0,162.0,74.49635,-153.9144,1025.26,-999.00,-3.74,yes,no,yes,300025010206580,unknown,unknown,unknown,North
2011-06-11T01:00:28Z,1307754029,2011,1,0,162.042,162.042,74.23285,-149.89539,1025.11,-999.00,-3.56,yes,no,yes,300025010206580,unknown,unknown,unknown,North
2011-06-11T01:59:31Z,1307757571,2011,2,0,162.083,162.083,74.22024,-150.07541,1024.64,-999.00,-3.97,yes,no,yes,300025010206580,unknown,unknown,unknown,North
2011-06-11T03:00:00Z,1307761200,2011,3,0,162.125,162.125,74.21552,-149.78148,1024.52,-999.00,-3.89,yes,no,yes,300025010206580,unknown,unknown,unknown,North
2011-06-11T04:00:28Z,1307764829,2011,4,0,162.167,162.167,74.21552,-149.78148,1024.02,-999.00,-3.93,yes,no,yes,300025010206580,unknown,unknown,unknown,North
2011-06-11T04:59:31Z,1307768371,2011,5,0,162.208,162.208,74.20301,-149.96138,1023.75,-999.00,-4.09,yes,no,yes,300025010206580,unknown,unknown,unknown,North
2011-06-11T06:00:00Z,1307772000,2011,6,0,162.25,162.25,74.25012,-150.00957,1023.57,-999.00,-4.61,yes,no,yes,300025010206580,unknown,unknown,unknown,North
2011-06-11T07:00:28Z,1307775629,2011,7,0,162.292,162.292,74.21552,-149.78148,1023.41,-999.00,-4.34,yes,no,yes,300025010206580,unknown,unknown,unknown,North
2011-06-11T07:59:31Z,1307779171,2011,8,0,162.333,162.333,74.25012,-150.00957,1023.47,-999.00,-4.64,yes,no,yes,300025010206580,unknown,unknown,unknown,North
2011-06-11T09:00:00Z,1307782800,2011,9,0,162.375,162.375,74.23741,-150.18969,1023.42,-999.00,-5.14,yes,no,yes,300025010206580,unknown,unknown,unknown,North
2011-06-11T10:00:28Z,1307786429,2011,10,0,162.417,162.417,74.23285,-149.89539,1023.33,-999.00,-4.83,yes,no,yes,300025010206580,unknown,unknown,unknown,North
2011-06-11T10:59:31Z,1307789971,2011,11,0,162.458,162.458,74.22024,-150.07541,1023.01,-999.00,-5.22,yes,no,yes,300025010206580,unknown,unknown,unknown,North
2011-06-11T12:00:00Z,1307793600,2011,12,0,162.5,162.5,74.20301,-149.96138,1022.69,-999.00,-6.4,yes,no,yes,300025010206580,unknown,unknown,unknown,North
2011-06-11T13:00:28Z,1307797229,2011,13,0,162.542,162.542,74.22024,-150.07541,1022.32,-999.00,-6.7,yes,no,yes,300025010206580,unknown,unknown,unknown,North
2011-06-11T13:59:31Z,1307800771,2011,14,0,162.583,162.583,74.20301,-149.96138,1022.11,-999.00,-6.68,yes,no,yes,300025010206580,unknown,unknown,unknown,North
2011-06-11T15:00:00Z,1307804400,2011,15,0,162.625,162.625,74.22024,-150.07541,1021.73,-999.00,-6.51,yes,no,yes,300025010206580,unknown,unknown,unknown,North
2011-06-11T16:00:28Z,1307808029,2011,16,0,162.667,162.667,74.22024,-150.07541,1021.66,-999.00,-6.11,yes,no,yes,300025010206580,unknown,unknown,unknown,North
2011-06-11T16:59:31Z,1307811571,2011,17,0,162.708,162.708,74.23741,-150.18969,1021.25,-999.00,-5.45,yes,no,yes,300025010206580,unknown,unknown,unknown,North
2011-06-11T18:00:00Z,1307815200,2011,18,0,162.75,162.75,74.80792,-142.66496,1020.88,-999.00,-5.02,yes,no,yes,300025010206580,unknown,unknown,unknown,North
2011-06-11T19:00:28Z,1307818829,2011,19,0,162.792,162.792,74.23285,-149.89539,1020.81,-999.00,-4.37,yes,no,yes,300025010206580,unknown,unknown,unknown,North
2011-06-11T19:59:31Z,1307822371,2011,20,0,162.833,162.833,74.20301,-149.96138,1020.38,-999.00,-3.73,yes,no,yes,300025010206580,unknown,unknown,unknown,North
2011-06-11T21:00:00Z,1307826000,2011,21,0,162.875,162.875,74.25012,-150.00957,1019.96,-999.00,-3.25,yes,no,yes,300025010206580,unknown,unknown,unknown,North
2011-06-11T22:00:28Z,1307829629,2011,22,0,162.917,162.917,74.22024,-150.07541,1019.75,-999.00,-2.9,yes,no,yes,300025010206580,unknown,unknown,unknown,North
2011-06-11T22:59:31Z,1307833171,2011,23,0,162.958,162.958,74.05562,-140.36157,1019.33,-999.00,-2.56,yes,no,yes,300025010206580,unknown,unknown,unknown,North
2011-06-12T00:00:00Z,1307836800,2011,0,0,163.0,163.0,74.19034,-150.14098,1019.03,-999.00,-2.48,yes,no,yes,300025010206580,unknown,unknown,unknown,North
2011-06-12T01:00:28Z,1307840429,2011,1,0,163.042,163.042,74.22024,-150.07541,1018.64,-999.00,-2.17,yes,no,yes,300025010206580,unknown,unknown,unknown,North
2011-06-12T01:59:31Z,1307843971,2011,2,0,163.083,163.083,74.19034,-150.14098,1018.22,-999.00,-2.17,yes,no,yes,300025010206580,unknown,unknown,unknown,North
2011-06-12T03:00:00Z,1307847600,2011,3,0,163.125,163.125,74.23741,-150.18969,1017.77,-999.00,-2.02,yes,no,yes,300025010206580,unknown,unknown,unknown,North
2011-06-12T04:00:28Z,1307851229,2011,4,0,163.167,163.167,74.16044,-150.2063,1017.18,-999.00,-2.15,yes,no,yes,300025010206580,unknown,unknown,unknown,North
2011-06-12T04:59:31Z,1307854771,2011,5,0,163.208,163.208,74.22024,-150.07541,1016.55,-999.00,-2.23,yes,no,yes,300025010206580,unknown,unknown,unknown,North
2011-06-12T06:00:00Z,1307858400,2011,6,0,163.25,163.25,74.19034,-150.14098,1016.05,-999.00,-2.09,yes,no,yes,300025010206580,unknown,unknown,unknown,North
2011-06-12T07:00:28Z,1307862029,2011,7,0,163.292,163.292,74.20748,-150.25512,1015.82,-999.00,-2.0,yes,no,yes,300025010206580,unknown,unknown,unknown,North
2011-06-12T07:59:31Z,1307865571,2011,8,0,163.333,163.333,74.17754,-150.32028,1015.29,-999.00,-1.86,yes,no,yes,300025010206580,unknown,unknown,unknown,North
2011-06-12T09:00:00Z,1307869200,2011,9,0,163.375,163.375,74.19034,-150.14098,1014.98,-999.00,-1.66,yes,no,yes,300025010206580,unknown,unknown,unknown,North
2011-06-12T10:00:28Z,1307872829,2011,10,0,163.417,163.417,74.19034,-150.14098,1014.15,-999.00,-1.61,yes,no,yes,300025010206580,unknown,unknown,unknown,North
2011-06-12T10:59:31Z,1307876371,2011,11,0,163.458,163.458,74.22456,-150.36951,1013.73,-999.00,-1.53,yes,no,yes,300025010206580,unknown,unknown,unknown,North
2011-06-12T12:00:00Z,1307880000,2011,12,0,163.5,163.5,74.19458,-150.43452,1013.25,-999.00,-1.43,yes,no,yes,300025010206580,unknown,unknown,unknown,North
2011-06-12T13:00:28Z,1307883629,2011,13,0,163.542,163.542,74.16776,-150.32028,1012.66,-999.00,-1.68,yes,no,yes,300025010206580,unknown,unknown,unknown,North
2011-06-12T13:59:31Z,1307887171,2011,14,0,163.583,163.583,74.19458,-150.43452,1012.42,-999.00,-1.66,yes,no,yes,300025010206580,unknown,unknown,unknown,North
2011-06-12T15:00:00Z,1307890800,2011,15,0,163.625,163.625,74.13779,-150.38519,1011.76,-999.00,-1.59,yes,no,yes,300025010206580,unknown,unknown,unknown,North
2011-06-12T16:00:28Z,1307894429,2011,16,0,163.667,163.667,74.19458,-150.43452,1011.06,-999.00,-1.2,yes,no,yes,300025010206580,unknown,unknown,unknown,North
2011-06-12T16:59:31Z,1307897971,2011,17,0,163.708,163.708,74.13779,-150.38519,1010.41,-999.00,-0.64,yes,no,yes,300025010206580,unknown,unknown,unknown,North
2011-06-12T18:00:00Z,1307901600,2011,18,0,163.75,163.75,74.19458,-150.43452,1010.2,-999.00,-0.38,yes,no,yes,300025010206580,unknown,unknown,unknown,North
2011-06-12T19:00:28Z,1307905229,2011,19,0,163.792,163.792,74.15066,-150.2063,1009.65,-999.00,-0.26,yes,no,yes,300025010206580,unknown,unknown,unknown,North
2011-06-12T19:59:31Z,1307908771,2011,20,0,163.833,163.833,74.21156,-150.54902,1009.64,-999.00,-0.13,yes,no,yes,300025010206580,unknown,unknown,unknown,North
2011-06-12T21:00:00Z,1307912400,2011,21,0,163.875,163.875,74.12478,-150.56377,1009.43,-999.00,-0.02,yes,no,yes,300025010206580,unknown,unknown,unknown,North
2011-06-12T22:00:28Z,1307916029,2011,22,0,163.917,163.917,74.18153,-150.61362,1009.36,-999.00,-0.01,yes,no,yes,300025010206580,unknown,unknown,unknown,North
2011-06-12T22:59:31Z,1307919571,2011,23,0,163.958,163.958,74.12478,-150.56377,1009.64,-999.00,0.01,yes,no,yes,300025010206580,unknown,unknown,unknown,North
2011-06-13T00:00:00Z,1307923200,2011,0,0,164.0,164.0,74.1548,-150.49928,1009.79,-999.00,0.17,yes,no,yes,300025010206580,unknown,unknown,unknown,North
2011-06-13T01:00:28Z,1307926829,2011,1,0,164.042,164.042,74.12478,-150.56377,1009.9,-999.00,-0.04,yes,no,yes,300025010206580,unknown,unknown,unknown,North
2011-06-13T01:59:31Z,1307930371,2011,2,0,164.083,164.083,74.16833,-150.7924,1009.85,-999.00,-0.17,yes,no,yes,300025010206580,unknown,unknown,unknown,North
2011-06-13T03:00:00Z,1307934000,2011,3,0,164.125,164.125,74.12478,-150.56377,1010.18,-999.00,-0.3,yes,no,yes,300025010206580,unknown,unknown,unknown,North
2011-06-13T04:00:28Z,1307937629,2011,4,0,164.167,164.167,74.20756,-151.61011,1010.09,-999.00,-0.49,yes,no,yes,300025010206580,unknown,unknown,unknown,North
2011-06-13T04:59:31Z,1307941171,2011,5,0,164.208,164.208,74.12478,-150.56377,1010.09,-999.00,-0.49,yes,no,yes,300025010206580,unknown,unknown,unknown,North
2011-06-13T06:00:00Z,1307944800,2011,6,0,164.25,164.25,74.15855,-150.7924,1009.86,-999.00,-0.54,yes,no,yes,300025010206580,unknown,unknown,unknown,North
2011-06-13T07:00:28Z,1307948429,2011,7,0,164.292,164.292,74.19841,-150.72822,1009.83,-999.00,-0.59,yes,no,yes,300025010206580,unknown,unknown,unknown,North
2011-06-13T07:59:31Z,1307951971,2011,8,0,164.333,164.333,74.00152,-148.54579,1009.46,-999.00,-0.65,yes,no,yes,300025010206580,unknown,unknown,unknown,North
2011-06-13T09:00:00Z,1307955600,2011,9,0,164.375,164.375,74.18153,-150.61362,1009.44,-999.00,-0.68,yes,no,yes,300025010206580,unknown,unknown,unknown,North
2011-06-13T10:00:28Z,1307959229,2011,10,0,164.417,164.417,74.11163,-150.74204,1009.27,-999.00,-0.69,yes,no,yes,300025010206580,unknown,unknown,unknown,North
2011-06-13T10:59:31Z,1307962771,2011,11,0,164.458,164.458,74.17176,-150.61362,1009.0,-999.00,-0.64,yes,no,yes,300025010206580,unknown,unknown,unknown,North
2011-06-13T12:00:00Z,1307966400,2011,12,0,164.5,164.5,74.12844,-150.85633,1008.94,-999.00,-0.65,yes,no,yes,300025010206580,unknown,unknown,unknown,North
2011-06-13T13:00:28Z,1307970029,2011,13,0,164.542,164.542,74.14169,-150.67796,1008.76,-999.00,-0.71,yes,no,yes,300025010206580,unknown,unknown,unknown,North
2011-06-13T13:59:31Z,1307973571,2011,14,0,164.583,164.583,74.12844,-150.85633,1008.44,-999.00,-0.98,yes,no,yes,300025010206580,unknown,unknown,unknown,North
2011-06-13T15:00:00Z,1307977200,2011,15,0,164.625,164.625,74.18512,-150.90711,1008.12,-999.00,-0.73,yes,no,yes,300025010206580,unknown,unknown,unknown,North
2011-06-13T16:00:28Z,1307980829,2011,16,0,164.667,164.667,74.12844,-150.85633,1007.88,-999.00,-0.61,yes,no,yes,300025010206580,unknown,unknown,unknown,North
2011-06-13T16:59:31Z,1307984371,2011,17,0,164.708,164.708,74.18512,-150.90711,1007.5,-999.00,-0.53,yes,no,yes,300025010206580,unknown,unknown,unknown,North
2011-06-13T18:00:00Z,1307988000,2011,18,0,164.75,164.75,74.56665,-145.33891,1007.45,-999.00,-0.28,yes,no,yes,300025010206580,unknown,unknown,unknown,North
2011-06-13T19:00:28Z,1307991629,2011,19,0,164.792,164.792,74.18833,-151.20072,1007.21,-999.00,-0.17,yes,no,yes,300025010206580,unknown,unknown,unknown,North
2011-06-13T19:59:31Z,1307995171,2011,20,0,164.833,164.833,74.15855,-150.7924,1007.17,-999.00,-0.31,yes,no,yes,300025010206580,unknown,unknown,unknown,North
2011-06-13T21:00:00Z,1307998800,2011,21,0,164.875,164.875,74.12844,-150.85633,1007.17,-999.00,-0.14,yes,no,yes,300025010206580,unknown,unknown,unknown,North
2011-06-13T22:00:28Z,1308002429,2011,22,0,164.917,164.917,74.12844,-150.85633,1006.96,-999.00,-0.01,yes,no,yes,300025010206580,unknown,unknown,unknown,North
2011-06-13T22:59:31Z,1308005971,2011,23,0,164.958,164.958,74.12844,-150.85633,1007.19,-999.00,-0.15,yes,no,yes,300025010206580,unknown,unknown,unknown,North
2011-06-14T00:00:00Z,1308009600,2011,0,0,165.0,165.0,74.09833,-150.92,1006.97,-999.00,-0.48,yes,no,yes,300025010206580,unknown,unknown,unknown,North
2011-06-14T01:00:28Z,1308013229,2011,1,0,165.042,165.042,74.16191,-151.08567,1006.71,-999.00,-0.25,yes,no,yes,300025010206580,unknown,unknown,unknown,North
2011-06-14T01:59:31Z,1308016771,2011,2,0,165.083,165.083,74.13172,-151.14902,1006.6,-999.00,-0.23,yes,no,yes,300025010206580,unknown,unknown,unknown,North
2011-06-14T03:00:00Z,1308020400,2011,3,0,165.125,165.125,74.12844,-150.85633,1006.39,-999.00,-0.35,yes,no,yes,300025010206580,unknown,unknown,unknown,North
2011-06-14T04:00:28Z,1308024029,2011,4,0,165.167,165.167,74.36258,-154.14814,1006.27,-999.00,-0.34,yes,no,yes,300025010206580,unknown,unknown,unknown,North
2011-06-14T04:59:31Z,1308027571,2011,5,0,165.208,165.208,74.14521,-150.97087,1006.11,-999.00,-0.27,yes,no,yes,300025010206580,unknown,unknown,unknown,North
2011-06-14T06:00:00Z,1308031200,2011,6,0,165.25,165.25,74.17169,-151.08567,1005.92,-999.00,-0.38,yes,no,yes,300025010206580,unknown,unknown,unknown,North
2011-06-14T07:00:28Z,1308034829,2011,7,0,165.292,165.292,74.14521,-150.97087,1005.78,-999.00,-0.42,yes,no,yes,300025010206580,unknown,unknown,unknown,North
2011-06-14T07:59:31Z,1308038371,2011,8,0,165.333,165.333,74.16191,-151.08567,1005.56,-999.00,-0.59,yes,no,yes,300025010206580,unknown,unknown,unknown,North